This demonstration page uses our WeatherBlox Daily Observations layout. Learn more.

Left ArrowRight Arrow

Hourly Observations for May 29, 2021

Temp ( °F °C ) Dew Point ( °F °C ) Humidity (%) Winds ( mph kmh ) Pressure ( in mb ) Visibility ( mi km ) Precip ( " mm )
12:53 am 00:53 Cloudy 49 9.4 45 7.2 86 86 NNE 10 17 29.96 1014 10 16 N/A
1:00 am 01:00 Cloudy 49 9.4 45 7.2 86 86 NNE 7 11 29.97 1015 10 16 N/A
1:42 am 01:42 Cloudy 48 8.9 45 7.2 89 89 NNE 8 13 29.96 1015 10 16 N/A
1:53 am 01:53 Cloudy 48 8.9 45 7.2 89 89 NNE 12 19 29.94 1014 10 16 N/A
2:42 am 02:42 Cloudy 48 8.9 44 6.7 86 86 NNE 8 13 29.96 1015 10 16 N/A
2:53 am 02:53 Cloudy 48 8.9 44 6.7 86 86 N 6 9 29.95 1014 10 16 N/A
3:53 am 03:53 Cloudy 48 8.9 43 6.1 83 83 NNE 10 17 29.96 1014 10 16 N/A
4:53 am 04:53 Cloudy 48 8.9 44 6.7 86 86 N 8 13 29.97 1015 10 16 N/A
5:22 am 05:22 Cloudy 48 8.9 44 6.7 86 86 N 7 11 29.99 1016 10 16 N/A
5:53 am 05:53 Cloudy 48 8.9 43 6.1 83 83 N 7 11 29.98 1015 10 16 N/A
6:02 am 06:02 Cloudy 48 8.9 43 6.1 83 83 N 10 17 29.99 1016 10 16 N/A
6:53 am 06:53 Cloudy 48 8.9 43 6.1 83 83 N 8 13 30.01 1016 10 16 N/A
7:53 am 07:53 Cloudy 48 8.9 41 5 77 77 N 12 19 30.02 1017 10 16 N/A
8:53 am 08:53 Cloudy 48 8.9 41 5 77 77 N 9 15 30.03 1017 10 16 N/A
9:53 am 09:53 Cloudy 49 9.4 42 5.6 77 77 N 9 15 30.04 1017 10 16 N/A
10:53 am 10:53 Cloudy 50 10 42 5.6 74 74 NNE 7 11 30.06 1018 10 16 N/A
11:53 am 11:53 Cloudy 50 10 43 6.1 77 77 N 9 15 30.07 1018 10 16 N/A
12:53 pm 12:53 Cloudy 51 10.6 43 6.1 74 74 N 7 11 30.09 1019 10 16 N/A
1:53 pm 13:53 Cloudy 53 11.7 44 6.7 72 72 N 12 19 30.10 1019 10 16 N/A
2:53 pm 14:53 Cloudy 53 11.7 43 6.1 69 69 NNE 9 15 30.11 1020 10 16 N/A
3:53 pm 15:53 Cloudy 55 12.8 45 7.2 69 69 NNE 9 15 30.11 1020 10 16 N/A
4:21 pm 16:21 Cloudy 55 12.8 44 6.7 67 67 N 12 19 30.10 1019 10 16 N/A
4:53 pm 16:53 Cloudy 56 13.3 45 7.2 67 67 NNE 12 19 30.10 1019 10 16 N/A
5:53 pm 17:53 Cloudy 57 13.9 46 7.8 67 67 N 6 9 30.10 1019 10 16 N/A
6:53 pm 18:53 Cloudy 57 13.9 45 7.2 64 64 NNE 9 15 30.11 1020 10 16 N/A
7:53 pm 19:53 Cloudy 57 13.9 45 7.2 64 64 NNE 9 15 30.13 1020 10 16 N/A
8:53 pm 20:53 Cloudy 57 13.9 43 6.1 60 60 NNE 9 15 30.15 1021 10 16 N/A
9:53 pm 21:53 Mostly Cloudy 53 11.7 39 3.9 59 59 NNE 7 11 30.17 1022 10 16 N/A
10:53 pm 22:53 Clear 47 8.3 38 3.3 71 71 NNW 5 7 30.19 1022 10 16 N/A
11:53 pm 23:53 Clear 47 8.3 36 2.2 66 66 N 6 9 30.19 1022 10 16 N/A

Powered by AerisWeather